Regional Weather Roundup
Issued by NWS Sioux Falls, SD

Home | Current Version | Previous Version | Text Only | Print | Product List | Glossary On
Versions: 1 2 3 4 5 6 7 8 9 10 11 12 13 14 15 16 17 18 19 20 21 22 23 24 25 26 27 28 29 30 31 32 33 34 35 36 37 38 39 40 41 42 43 44 45 46 47 48 49 50
370
ASUS43 KFSD 232002
RWRFSD

WEATHER ROUNDUP FOR SE SOUTH DAKOTA/SW MINNESOTA/NW IOWA
NATIONAL WEATHER SERVICE SIOUX FALLS SD
200 PM CST THU FEB 23 2017

NOTE: "FAIR" INDICATES FEW OR NO CLOUDS BELOW 12,000 FEET WITH NO
SIGNIFICANT WEATHER AND OR OBSTRUCTIONS TO VISIBILITY.


SDZ038>040-050-052>070-232100-
SOUTHEAST SOUTH DAKOTA

CITY           SKY/WX    TMP DP  RH WIND       PRES   REMARKS
BROOKINGS      PTSUNNY   30  24  78 NE18      29.86F WCI  18
CHAMBERLAIN    LGT SNOW  32  30  94 NE9G16    29.88S WCI  24
HURON          CLOUDY    32  24  72 NE20      29.91F WCI  20
MADISON        FLURRIES  28  28 100 NE18G28   29.85F WCI  16
MITCHELL       LGT SNOW  31  29  92 NE16      29.89S VSB 3/4 WCI  20
SIOUX FALLS    LGT SNOW  31  28  89 NE20      29.84S VSB 3/4 WCI  19
WINNER         SNOW      30  26  85 NE17      29.84F VSB 1/2 WCI  18
YANKTON        CLOUDY    32  27  80 N21G29    29.79F WCI  20
$$

MNZ071-072-080-081-089-090-097-098-232100-
SOUTHWEST MINNESOTA

CITY           SKY/WX    TMP DP  RH WIND       PRES   REMARKS
FAIRMONT       CLOUDY    33  28  81 N13G21    29.84S WCI  24
JACKSON          N/A     32  28  86 N21       29.82F WCI  20
LUVERNE        CLOUDY    32  27  80 NE15G21   29.84F WCI  22
MARSHALL       CLOUDY    31  26  82 N14       29.92R WCI  21
MONTEVIDEO     CLOUDY    32  27  80 NE13      29.95F WCI  22
PIPESTONE      CLOUDY    30  23  74 NE13G24   29.83F WCI  20
REDWOOD FALLS  CLOUDY    32  24  72 N14       29.90F WCI  22
TRACY          CLOUDY    32  28  86 N14       29.89F WCI  22
WINDOM         CLOUDY    32  27  80 N22       29.85F WCI  19
WORTHINGTON    FLURRIES  30  26  85 N21       29.82F WCI  17
$$

IAZ001>003-012>014-020>022-031-032-NEZ013-014-SDZ071-232100-
NORTHWEST IOWA

CITY           SKY/WX    TMP DP  RH WIND       PRES   REMARKS
CHEROKEE       CLOUDY    35  32  88 NE13G21   29.77R WCI  26
DENISON        LGT RAIN  37  34  87 NE16G25   29.66S
ESTHERVILLE    CLOUDY    32  30  92 N23       29.80F WCI  19
LE MARS        CLOUDY    36  30  80 NE21G26   29.76F
ORANGE CITY    CLOUDY    34  30  86 N17       29.77S WCI  23
SHELDON        MOSUNNY   32  32 100 NE28      29.76F WCI  18
SIOUX CITY     CLOUDY    38  30  73 NE22      29.74F
SPENCER        CLOUDY    35  30  82 NE29      29.77F WCI  22
STORM LAKE     CLOUDY    34  32  93 NE25G32   29.71F WCI  21
$$

ABBREVIATIONS USED IN REMARKS
   TC - TEMPERATURE IN CELSIUS
  WCI - WIND CHILL INDEX
   HX - HEAT INDEX
  VSB - VISIBILITY





USA.gov is the U.S. government's official web portal to all federal, state and local government web resources and services.